TimeEDT,TemperatureF,Dew PointF,Humidity,Sea Level PressureIn,VisibilityMPH,Wind Direction,Wind SpeedMPH,Gust SpeedMPH,PrecipitationIn,Events,Conditions,WindDirDegrees,DateUTC
12:51 AM,42.1,39.0,89,30.17,10.0,SW,3.5,-,N/A,,Clear,230,2013-09-09 04:51:00
1:51 AM,37.9,36.0,93,30.18,10.0,Calm,Calm,-,N/A,,Clear,0,2013-09-09 05:51:00
2:51 AM,39.0,37.0,93,30.19,10.0,Calm,Calm,-,N/A,,Clear,0,2013-09-09 06:51:00
3:51 AM,37.9,36.0,93,30.21,10.0,Calm,Calm,-,N/A,,Clear,0,2013-09-09 07:51:00
4:51 AM,37.0,36.0,96,30.22,10.0,Calm,Calm,-,N/A,,Clear,0,2013-09-09 08:51:00
5:43 AM,35.6,35.6,100,30.20,10.0,Calm,Calm,-,N/A,,Scattered Clouds,0,2013-09-09 09:43:00
5:48 AM,35.6,35.6,100,30.20,2.5,Calm,Calm,-,N/A,,Mostly Cloudy,0,2013-09-09 09:48:00
5:51 AM,36.0,36.0,100,30.23,1.0,Calm,Calm,-,N/A,,Mist,0,2013-09-09 09:51:00
5:58 AM,35.6,35.6,100,30.20,0.5,Calm,Calm,-,N/A,Fog,Fog,0,2013-09-09 09:58:00
6:07 AM,35.6,35.6,100,30.20,1.2,Calm,Calm,-,N/A,,Overcast,0,2013-09-09 10:07:00
6:10 AM,35.6,35.6,100,30.20,2.0,Calm,Calm,-,N/A,,Overcast,0,2013-09-09 10:10:00
6:17 AM,35.6,35.6,100,30.20,9.0,Calm,Calm,-,N/A,,Overcast,0,2013-09-09 10:17:00
6:36 AM,35.6,35.6,100,30.21,2.5,Calm,Calm,-,N/A,,Scattered Clouds,0,2013-09-09 10:36:00
6:41 AM,35.6,35.6,100,30.21,1.2,Calm,Calm,-,N/A,,Mostly Cloudy,0,2013-09-09 10:41:00
6:43 AM,35.6,35.6,100,30.21,0.8,Calm,Calm,-,N/A,,Mostly Cloudy,0,2013-09-09 10:43:00
6:51 AM,36.0,35.1,97,30.25,0.2,Calm,Calm,-,N/A,Fog,Fog,0,2013-09-09 10:51:00
7:40 AM,37.4,37.4,100,30.23,1.2,Calm,Calm,-,N/A,,Mostly Cloudy,0,2013-09-09 11:40:00
7:42 AM,37.4,37.4,100,30.23,3.0,Calm,Calm,-,N/A,,Mostly Cloudy,0,2013-09-09 11:42:00
7:51 AM,37.9,37.0,97,30.26,10.0,Calm,Calm,-,N/A,,Mostly Cloudy,0,2013-09-09 11:51:00
7:59 AM,37.4,37.4,100,30.23,10.0,Calm,Calm,-,N/A,,Partly Cloudy,0,2013-09-09 11:59:00
8:51 AM,43.0,42.1,97,30.25,10.0,Calm,Calm,-,N/A,,Clear,0,2013-09-09 12:51:00
9:51 AM,53.1,43.0,69,30.24,10.0,SSE,8.1,-,N/A,,Clear,150,2013-09-09 13:51:00
10:51 AM,57.0,37.9,49,30.24,10.0,SSE,12.7,-,N/A,,Clear,160,2013-09-09 14:51:00
11:51 AM,60.1,39.9,47,30.22,10.0,South,8.1,-,N/A,,Clear,190,2013-09-09 15:51:00
12:51 PM,63.0,42.1,46,30.19,10.0,South,4.6,-,N/A,,Clear,190,2013-09-09 16:51:00
1:51 PM,64.0,41.0,43,30.19,10.0,South,6.9,-,N/A,,Clear,190,2013-09-09 17:51:00
2:51 PM,66.0,41.0,40,30.18,10.0,Variable,4.6,-,N/A,,Clear,0,2013-09-09 18:51:00
3:51 PM,68.0,37.9,33,30.15,10.0,Variable,3.5,-,N/A,,Clear,0,2013-09-09 19:51:00
4:51 PM,66.0,37.0,34,30.14,10.0,SSW,3.5,-,N/A,,Clear,210,2013-09-09 20:51:00
5:51 PM,63.0,39.0,41,30.14,10.0,SSW,5.8,-,N/A,,Clear,200,2013-09-09 21:51:00
6:51 PM,59.0,39.0,48,30.14,10.0,SSW,5.8,-,N/A,,Clear,200,2013-09-09 22:51:00
7:51 PM,57.0,39.9,53,30.15,10.0,SSW,4.6,-,N/A,,Clear,210,2013-09-09 23:51:00
8:51 PM,54.0,42.1,64,30.15,10.0,Calm,Calm,-,N/A,,Clear,0,2013-09-10 00:51:00
9:51 PM,51.1,43.0,74,30.14,10.0,Calm,Calm,-,N/A,,Clear,0,2013-09-10 01:51:00
10:51 PM,53.1,43.0,69,30.13,10.0,SSE,3.5,-,N/A,,Clear,150,2013-09-10 02:51:00
11:51 PM,51.1,44.1,77,30.12,10.0,Calm,Calm,-,N/A,,Clear,0,2013-09-10 03:51:00